XM-4 (BLUES)

Last updated on Sun Dec 31 2023 00:02:36 GMT+0000 (Greenwich Mean Time)

1 29520U 06049A 23364.46632281 -.00000170 00000+0 00000+0 0 9994 2 29520 0.4878 94.8561 0004113 231.1563 250.8598 0.98815048 42455
UTC large
Height (km)
Speed (km/s)
/
Latitude / Longitude
Inclination (degrees)
Orbital Period (minutes)
Azimuth
Elevation
Range (km)
Doppler Factor

Next 0 passes for location: London (51.5072 / 0.1276)

Sorry there are no passes over London.